Flag for U.S.A. Weather past 2 weeks in Sioux Falls, South Dakota, U.S.A.

Now
52 °F

Clear.


Feels Like: 52 °F
Forecast: 44 / 69 °F
Wind: No wind

Location: Foss Field

Current Time: Oct 25, 2014 at 1:35:55 AM

Latest Report: Oct 25, 2014 at 12:56 AM


Visibility: 10 mi

Pressure: 30.01 "Hg

Humidity: 77%

Dew point: 45 °F

Location of Sioux FallsLocation

Historic Weather in Sioux Falls — Graph

°F

Sioux Falls temperature yesterday

Maximum temperature yesterday: 75 °F (at 2:56 PM)
Minimum temperature yesterday: 49 °F (at 7:56 AM)
Average temperature yesterday: 60 °F

Past Weeks' High & Low Weather Summary

 TemperatureHumidityPressure
High75 °F (Oct 24, 2:56 PM)100% (Oct 23, 1:56 AM)30.34 "Hg (Oct 23, 1:56 AM)
Low27 °F (Oct 11, 5:56 AM)26% (Oct 24, 3:56 PM)29.62 "Hg (Oct 12, 2:56 PM)
Average52 °F66%29.99 "Hg
* Reported Oct 9 11:56 PM — Oct 24 11:56 PM, Sioux Falls, Weather by CustomWeather, © 2014

Note: Actual official high and low records may vary slightly from our data, if they occured in-between our weather recording intervals... More about our weather records

Advertising

Sioux Falls weather history for previous 24 hours

 ConditionsComfort  
Time TempWeatherWind HumidityBarometerVisibility
11:56 PM
Oct 24
54 °FClear.No wind62%30.01 "Hg10 mi
10:56 PM53 °FClear.3 mph66%30.00 "Hg10 mi
9:56 PM54 °FClear.3 mph67%29.97 "Hg10 mi
8:56 PM58 °FClear.6 mph58%29.97 "Hg10 mi
7:56 PM57 °FClear.3 mph60%29.95 "Hg10 mi
6:56 PM62 °FScattered clouds.6 mph48%29.93 "Hg10 mi
5:56 PM72 °FPartly sunny.6 mph33%29.90 "Hg10 mi
4:56 PM75 °FPartly sunny.9 mph28%29.89 "Hg10 mi
3:56 PM75 °FOvercast.10 mph26%29.87 "Hg10 mi
2:56 PM75 °FPartly sunny.8 mph27%29.87 "Hg10 mi
1:56 PM74 °FPartly sunny.8 mph33%29.87 "Hg10 mi
12:56 PM69 °FPartly sunny.3 mph51%29.90 "Hg10 mi
11:56 AM65 °FPartly sunny.3 mph66%29.90 "Hg10 mi
10:56 AM58 °FPartly sunny.5 mph75%29.90 "Hg10 mi
9:56 AM53 °FPartly sunny.3 mph86%29.89 "Hg10 mi
8:56 AM50 °FFog.5 mph96%29.88 "Hg5 mi
7:56 AM49 °FFog.3 mph100%29.85 "Hg3 mi
6:56 AM52 °FFog.6 mph93%29.85 "Hg3 mi
5:56 AM53 °FClear.3 mph93%29.84 "Hg9 mi
4:56 AM53 °FClear.9 mph89%29.84 "Hg10 mi
3:56 AM54 °FClear.9 mph86%29.85 "Hg10 mi
2:56 AM55 °FClear.12 mph83%29.86 "Hg10 mi
1:56 AM55 °FClear.12 mph80%29.88 "Hg10 mi
Weather by CustomWeather, © 2014

See weather overviewHow to use our weather pages